TimeMST,TemperatureF,Dew PointF,Humidity,Sea Level PressureIn,VisibilityMPH,Wind Direction,Wind SpeedMPH,Gust SpeedMPH,PrecipitationIn,Events,Conditions,WindDirDegrees,DateUTC
12:56 AM,82.4,55.4,39,29.68,10.0,NNE,3.5,-,N/A,,Clear,30,2013-09-15 07:56:00
1:56 AM,80.6,57.2,45,29.68,10.0,North,8.1,-,N/A,,Clear,350,2013-09-15 08:56:00
2:56 AM,80.6,57.2,45,29.69,10.0,North,4.6,-,N/A,,Clear,350,2013-09-15 09:56:00
3:56 AM,78.8,57.2,47,29.70,10.0,NNW,5.8,-,N/A,,Clear,330,2013-09-15 10:56:00
4:56 AM,77.0,57.2,50,29.71,10.0,NNW,6.9,-,N/A,,Clear,330,2013-09-15 11:56:00
5:56 AM,77.0,57.2,50,29.73,10.0,NNW,6.9,-,N/A,,Clear,340,2013-09-15 12:56:00
6:56 AM,78.8,59.0,51,29.75,10.0,Calm,Calm,-,N/A,,Clear,0,2013-09-15 13:56:00
7:56 AM,84.2,59.0,42,29.76,10.0,NNW,4.6,-,N/A,,Clear,330,2013-09-15 14:56:00
8:56 AM,89.6,57.2,33,29.78,10.0,NE,8.1,-,N/A,,Clear,40,2013-09-15 15:56:00
9:56 AM,93.2,59.0,32,29.78,10.0,NE,6.9,-,N/A,,Clear,40,2013-09-15 16:56:00
10:56 AM,96.8,59.0,28,29.77,10.0,East,9.2,-,N/A,,Clear,80,2013-09-15 17:56:00
11:56 AM,98.6,59.0,27,29.76,10.0,Variable,5.8,-,N/A,,Clear,0,2013-09-15 18:56:00
12:56 PM,100.4,59.0,25,29.74,10.0,SSE,5.8,-,N/A,,Clear,160,2013-09-15 19:56:00
1:56 PM,102.2,57.2,22,29.72,10.0,NE,5.8,-,N/A,,Clear,40,2013-09-15 20:56:00
2:56 PM,102.2,55.4,21,29.70,10.0,Variable,6.9,-,N/A,,Clear,0,2013-09-15 21:56:00
3:56 PM,102.2,55.4,21,29.69,10.0,NE,6.9,-,N/A,,Clear,40,2013-09-15 22:56:00
4:56 PM,102.2,53.6,20,29.68,10.0,NE,2.3,-,N/A,,Clear,40,2013-09-15 23:56:00
5:56 PM,100.4,53.6,21,29.68,10.0,NNE,2.3,-,N/A,,Clear,30,2013-09-16 00:56:00
6:56 PM,98.6,55.4,24,29.68,10.0,North,1.2,-,N/A,,Clear,10,2013-09-16 01:56:00
7:56 PM,95.0,57.2,28,29.70,10.0,WNW,2.3,-,N/A,,Clear,300,2013-09-16 02:56:00
8:56 PM,89.6,59.0,36,29.71,10.0,NW,5.8,-,N/A,,Clear,320,2013-09-16 03:56:00
9:56 PM,87.8,57.2,35,29.73,10.0,North,5.8,-,N/A,,Clear,10,2013-09-16 04:56:00
10:56 PM,87.8,59.0,38,29.73,10.0,North,4.6,-,N/A,,Clear,350,2013-09-16 05:56:00
11:56 PM,84.2,59.0,42,29.73,10.0,North,6.9,-,N/A,,Clear,360,2013-09-16 06:56:00